GFSFLT2_sfc_thetae_252.txt.gz
Theta_e
300 302 300 303 302 300 300 299 301 306 307 306 305 304 304 304 304 303 303 304 304 305 306 306 308 308 310
299 300 300 299 298 296 296 297 297 302 303 303 303 303 302 302 301 301 301 302 301 301 303 304 305 306 307
296 299 296 296 294 293 293 293 295 297 298 300 302 300 299 298 298 298 298 299 299 299 299 300 300 301 302
295 295 293 293 293 291 289 289 289 293 294 297 297 297 297 296 296 296 296 297 297 298 297 296 296 297 298
292 291 289 289 289 289 288 288 288 289 290 291 292 292 292 293 293 295 295 295 295 295 295 294 294 294 295
289 288 288 289 290 288 287 286 285 289 288 286 287 285 288 291 295 295 294 293 293 293 293 292 292 292 292
285 285 286 288 289 284 283 282 278 280 283 279 283 283 285 289 293 293 292 291 291 290 290 290 290 290 291
284 284 284 285 286 286 282 278 279 280 281 277 279 280 283 285 291 291 290 289 289 289 289 288 289 289 289
289 289 289 289 287 284 280 279 278 279 279 279 280 280 281 281 283 288 288 288 288 287 288 288 288 288 283
281 283 284 284 285 280 280 278 278 276 278 278 280 280 277 281 282 282 281 286 286 287 287 287 288 281 279
280 280 280 280 280 279 279 278 277 276 279 276 276 276 274 278 280 279 279 279 279 280 285 286 286 285 280
280 278 278 278 279 280 280 279 279 278 278 278 267 272 268 269 275 279 278 278 278 278 279 283 284 285 286
279 278 278 279 279 280 281 280 279 279 280 278 274 274 270 267 270 274 277 277 278 276 277 277 277 278 278
279 279 279 278 278 279 276 277 273 275 280 279 278 274 266 271 271 269 274 270 277 276 276 278 278 278 278
279 278 279 279 278 277 275 272 269 269 271 274 276 277 276 270 266 272 273 273 274 276 276 276 278 278 278
277 277 276 275 274 273 272 269 267 269 268 269 269 268 269 272 278 271 271 271 273 275 275 270 275 278 278
275 274 273 271 271 269 272 275 275 275 272 276 268 274 271 266 273 281 270 270 271 274 273 272 273 276 278

GFSFLT2_sfc_thetae_258.txt.gz
Theta_e
298 300 299 301 299 299 299 299 301 306 307 306 305 305 304 303 303 303 303 303 303 304 305 306 307 307 307
298 298 297 297 296 295 296 296 297 301 304 304 304 302 301 301 300 300 300 300 301 300 300 301 302 303 303
296 298 295 295 293 293 292 293 294 297 299 301 301 300 299 299 298 298 298 299 298 297 296 297 297 298 299
294 294 293 293 293 291 289 290 290 293 295 297 297 297 297 296 296 295 296 296 296 295 295 294 294 295 295
292 290 289 289 289 290 288 288 288 289 290 291 291 291 291 292 294 295 294 294 294 293 293 293 292 292 293
289 288 288 289 290 289 287 286 285 286 287 285 285 283 285 292 295 294 293 292 291 291 291 291 291 291 291
287 285 285 284 284 282 282 281 277 277 280 277 280 281 283 287 292 292 291 290 290 290 290 290 290 290 289
283 283 283 283 284 283 281 276 277 278 279 279 277 278 280 282 291 290 289 289 289 289 289 289 289 289 288
289 289 288 288 286 283 280 278 277 278 278 278 278 279 279 279 282 289 288 288 287 287 287 287 288 287 283
280 281 281 282 284 279 280 277 277 275 278 276 278 278 275 279 279 278 279 285 286 286 286 286 287 281 279
279 278 279 279 279 279 278 279 275 274 277 274 273 274 271 274 278 278 277 277 278 279 283 284 285 284 279
279 278 278 278 279 278 278 278 278 277 278 277 266 269 264 267 272 277 277 277 277 277 278 281 282 283 284
279 278 278 278 279 279 279 279 279 279 280 278 273 273 268 264 269 271 275 277 277 275 276 276 276 277 276
278 278 278 278 277 277 274 276 273 275 278 278 277 274 265 270 269 268 273 268 275 275 276 276 277 277 277
277 277 278 278 277 276 273 271 267 269 271 274 274 274 273 267 265 270 271 271 273 274 273 274 275 276 276
276 276 276 275 274 273 271 268 268 269 268 268 268 266 268 270 276 275 273 269 272 273 273 269 272 276 277
275 275 274 273 273 270 272 271 269 271 267 266 261 260 257 261 271 279 268 269 269 270 271 271 273 275 277

GFSFLT2_sfc_thetae_264.txt.gz
Theta_e
296 299 300 297 297 297 299 297 300 306 307 307 307 305 304 303 303 303 302 303 302 302 302 303 304 303 304
296 297 297 297 296 295 296 296 297 303 306 305 304 302 302 302 301 301 300 299 298 298 298 298 299 299 300
295 297 296 295 293 293 293 293 295 298 300 302 302 301 300 299 299 298 298 297 297 295 295 295 295 296 297
294 294 293 293 293 291 289 290 290 293 296 297 297 298 298 297 297 296 295 295 294 293 293 293 293 294 294
292 291 290 290 290 290 288 288 286 287 290 289 290 290 291 294 295 295 294 293 292 292 292 292 292 292 292
290 289 289 290 290 289 288 286 285 284 287 285 285 284 284 291 294 294 293 291 291 291 291 291 291 291 291
289 288 287 287 287 286 286 285 281 277 280 277 279 281 282 285 292 292 290 290 290 290 289 289 289 289 289
286 284 283 282 283 282 281 276 277 278 279 277 277 277 279 280 290 289 289 289 289 288 288 288 288 288 288
289 290 290 289 285 282 279 279 278 278 277 278 278 278 279 279 280 287 288 287 287 287 287 287 287 287 282
279 280 280 282 284 281 281 277 276 275 277 276 277 276 274 279 278 278 278 285 285 285 285 286 286 280 279
279 278 279 278 278 278 278 279 275 273 277 274 272 273 270 273 276 278 277 277 277 279 282 283 285 283 278
278 277 278 278 278 278 278 278 278 277 277 276 265 269 264 265 271 276 277 276 277 276 277 280 281 282 283
278 278 278 278 279 278 278 279 278 278 278 277 272 273 267 265 267 270 273 275 276 273 275 275 275 276 275
279 278 278 277 276 276 273 274 271 273 277 277 275 272 265 269 270 268 272 268 274 273 274 274 276 277 276
278 277 277 277 276 274 272 269 265 267 269 272 272 273 272 267 264 270 270 270 271 272 272 272 274 276 276
277 277 276 273 271 270 269 266 265 267 266 267 267 265 268 271 275 269 269 268 270 271 272 268 271 275 276
276 274 273 269 270 267 268 267 266 267 266 265 262 261 259 260 270 278 267 267 268 269 270 269 269 274 276

GFSFLT2_sfc_thetae_270.txt.gz
Theta_e
302 303 302 302 302 303 303 304 306 307 308 307 306 306 305 304 305 304 302 302 301 301 301 301 302 302 302
300 300 300 301 301 300 298 299 301 305 307 306 305 304 303 303 302 301 299 298 297 298 298 298 298 298 299
299 300 297 297 295 296 296 295 296 299 303 304 303 302 303 302 300 298 297 296 295 295 295 295 296 296 296
298 296 296 296 296 293 292 293 291 293 296 299 299 300 300 299 297 295 294 294 294 294 294 293 293 294 294
296 294 293 292 293 294 292 289 287 288 289 289 292 292 295 296 295 294 293 292 292 292 292 292 292 292 292
294 293 292 292 292 292 289 288 286 286 289 287 289 290 293 294 294 293 292 291 291 291 291 290 290 290 290
294 294 292 292 292 290 288 287 285 285 288 287 289 289 291 292 293 292 290 290 290 290 289 289 289 289 289
295 292 291 290 291 290 287 283 285 286 288 287 288 288 289 291 291 290 290 290 288 288 288 288 288 288 287
291 291 290 290 292 291 287 287 285 284 284 287 287 286 288 288 288 289 288 288 286 286 286 287 287 287 286
285 287 288 287 288 290 289 287 285 282 283 284 283 284 283 286 286 287 287 284 284 284 285 285 286 286 286
283 283 283 283 284 285 286 287 285 281 282 284 282 281 283 282 284 285 284 284 284 283 284 284 285 284 284
282 282 282 281 282 282 282 282 282 281 281 282 282 282 281 280 280 282 283 283 283 282 283 283 283 283 283
281 281 282 282 282 281 281 281 281 281 280 281 282 280 282 281 280 280 280 281 282 281 282 282 282 282 281
282 282 282 282 281 282 280 280 280 279 279 280 280 281 280 280 281 280 280 279 281 281 281 282 282 283 282
281 281 280 281 280 281 280 280 280 279 279 279 279 280 280 280 279 279 279 279 280 280 280 280 282 282 282
282 282 281 281 279 279 280 280 278 278 278 278 279 279 279 278 280 279 279 279 280 280 279 278 280 282 282
283 283 282 281 279 279 278 278 278 277 277 278 279 278 277 276 277 279 278 279 279 279 280 279 278 280 281